Flag for Brazil Weather past 2 weeks in São Paulo, São Paulo, Brazil

Now
70 °F

Sunny.


Feels Like: 70 °F
Forecast: 65 / 72 °F
Wind: 7 mph from Northwest

Location: Sao Paulo Airport

Current Time: Sep 20, 2014 at 9:58:01 AM

Latest Report: Sep 20, 2014 at 9:00 AM


Visibility: 10 mi

Pressure: 30.04 "Hg

Humidity: 69%

Dew point: 59 °F

Location of São PauloLocation

Historic Weather in São Paulo — Graph

°F

São Paulo temperature yesterday

Maximum temperature yesterday: 70 °F (at 11:00 AM)
Minimum temperature yesterday: 63 °F (at 1:00 AM)
Average temperature yesterday: 66 °F

Past Weeks' High & Low Weather Summary

 TemperatureHumidityPressure
High90 °F (Sep 11, 1:00 PM)88% (Sep 19, 3:00 AM)30.39 "Hg (Sep 19, 3:00 AM)
Low54 °F (Sep 6, 7:00 AM)15% (Sep 9, 2:00 PM)29.98 "Hg (Sep 10, 4:00 PM)
Average69 °F59%30.13 "Hg
* Reported Sep 5 9:00 AM — Sep 20 9:00 AM, São Paulo, Weather by CustomWeather, © 2014

Note: Actual official high and low records may vary slightly from our data, if they occured in-between our weather recording intervals... More about our weather records

Advertising

São Paulo weather history for previous 24 hours

 ConditionsComfort  
Time TempWeatherWind HumidityBarometerVisibility
9:00 AM
Sep 20
70 °FSunny.7 mph69%30.04 "Hg10 mi
8:00 AM68 °FSunny.9 mph78%30.04 "Hg10 mi
7:00 AM66 °FLight rain. Clear.9 mph83%30.04 "HgN/A
6:00 AM66 °FSunny.2 mph83%30.01 "Hg10 mi
5:00 AM66 °FSunny.5 mph83%30.01 "Hg10 mi
4:00 AM66 °FClear.2 mph83%29.98 "Hg10 mi
3:00 AM66 °FLight rain. Clear.6 mph83%30.01 "HgN/A
2:00 AM66 °FLight rain. Clear.12 mph83%30.04 "HgN/A
1:00 AM68 °FLight rain. Passing clouds.21 mph73%30.07 "Hg5 mi
12:00 AM68 °FClear.18 mph73%30.07 "Hg10 mi
11:00 PM
Sep 19
70 °FClear.17 mph69%30.04 "Hg10 mi
10:00 PM68 °FClear.8 mph78%30.04 "Hg5 mi
9:00 PM68 °FClear.8 mph78%30.04 "Hg4 mi
8:00 PM68 °FFog.8 mph78%30.01 "Hg3 mi
7:00 PM66 °FPartly cloudy.1 mph83%30.04 "Hg6 mi
6:00 PM66 °FLight rain. Mostly cloudy.3 mph83%30.04 "Hg5 mi
5:00 PM66 °FLow clouds.6 mph83%30.01 "Hg6 mi
4:00 PM66 °FLow clouds.7 mph83%30.01 "HgN/A
3:00 PM66 °FMostly cloudy.13 mph83%30.04 "Hg4 mi
2:00 PM68 °FMostly cloudy.10 mph78%30.01 "Hg5 mi
1:00 PM70 °FLight rain. Mostly cloudy.8 mph73%30.01 "HgN/A
12:00 PM68 °FPartly sunny.12 mph83%30.04 "HgN/A
11:00 AM70 °FLight rain. Overcast.10 mph73%30.09 "Hg4 mi
10:00 AM68 °FPartly sunny.8 mph78%30.01 "HgN/A
9:00 AM66 °FLight rain. Partly sunny.9 mph83%30.04 "HgN/A
Weather by CustomWeather, © 2014

See weather overviewHow to use our weather pages